User: anonymous   Login
Location: Bazinghen
(50.8246°N, 1.6616°E)
Time: 12:26:10
(UTC+00:00)
Language:

Cosmos 1908 - Orbit

View from above orbital plane
View from above orbital plane
View from above satellite
View from above satellite

Ground track
Ground track

The orbit data is extracted from the following two-line orbital elements,

1 18748U 88001A   20190.82029085 -.00000057  00000-0 -47591-5 0  9996
2 18748  82.4714  36.8502 0013208 353.0329   7.0717 15.14932015774910
Epoch (UTC): 08 July 2020 19:41:13
Eccentricity: 0.0013208
inclination: 82.4714°
perigee height: 512 km
apogee height: 530 km
right ascension of ascending node: 36.8502°
argument of perigee: 353.0329°
revolutions per day: 15.14932015
mean anomaly at epoch: 7.0717°
orbit number at epoch: 77491

The dashed part of the orbit path shows where the satellite is in the earth's shadow,  

DLR